Weather Roundup
Issued by NWS Chicago, IL

Home | Current Version | Previous Version | Graphics & Text | Print | Product List | Glossary On
Versions: 1 2 3 4 5 6 7 8 9 10 11 12 13 14 15 16 17 18 19 20 21 22 23 24 25 26 27 28 29 30 31 32 33 34 35 36 37 38 39 40 41 42 43 44 45 46 47 48 49 50
000
NZUS59 KLOT 242010
HRRLOT

CHICAGO AREA WEATHER ROUNDUP
NATIONAL WEATHER SERVICE CHICAGO/ROMEOVILLE IL
300 PM CDT THU APR 24 2014

NOTE: "FAIR" INDICATES FEW OR NO CLOUDS BELOW 12,000 FEET WITH NO
SIGNIFICANT WEATHER AND/OR OBSTRUCTIONS TO VISIBILITY.

* THESE STATIONS ARE NOT UNDER NWS QUALITY CONTROL. THEY ALSO MAY NOT
  REPORT WEATHER SUCH AS PRECIPITATION OR FOG.

ILZ005-006-012>014-019>023-242100-
NORTHEAST ILLINOIS

CITY           SKY/WX    TMP DP  RH WIND       PRES   REMARKS
OHARE          CLOUDY    62  32  32 SE25G33   29.81F
MIDWAY         CLOUDY    62  31  31 SE23      29.83F
AURORA         CLOUDY    67  36  31 SE28G38   29.78F
LANSING*       CLOUDY    61  30  31 SE17G24   29.85F
JOLIET*        CLOUDY    66  33  28 SE15G26   29.80F
WAUKEGAN       CLOUDY    51  33  50 SE13G29   29.82F
DUPAGE AIRPORT CLOUDY    65  33  30 SE22G32   29.78F
WHEELING       CLOUDY    62  33  33 SE20G25   29.82F
KANKAKEE*      PTSUNNY   65  38  36 SE18      29.83F
MORRIS*        CLOUDY    68  28  22 SE24G32   29.77F
LEWIS AIRPORT* CLOUDY    65  32  29 SE21G30   29.80F
NORTHERLY IS     N/A     54  41  61 SE13        N/A
$$

WIZ051-052-058>065-066-070>072-242100-
SOUTHEAST WISCONSIN

CITY           SKY/WX    TMP DP  RH WIND       PRES   REMARKS
MILWAUKEE      CLOUDY    51  31  46 SE22G33   29.85F
KENOSHA*       CLOUDY    53  33  46 SE17G26   29.82F
RACINE*        CLOUDY    50  31  48 SE18G30   29.85F
BURLINGTON     CLOUDY    57  35  43 S15G22    29.82R
WAUKESHA       CLOUDY    54  30  40 SE12G22   29.85R
WEST BEND      LGT RAIN  45  32  61 E9        29.88R
$$

INZ001>003-010>013-019-020-242100-
NORTHWEST INDIANA

CITY           SKY/WX    TMP DP  RH WIND       PRES   REMARKS
GARY*          CLOUDY    63  27  25 SE14G31   29.85F
MICHIGAN CITY* NOT AVBL
RENSSELAER*    NOT AVBL
VALPARAISO     CLOUDY    60  23  24 SE17G26   29.87F
$$

LMZ740>746-242100-
SOUTHERN LAKE MICHIGAN

STATION/POSITION TIME  SKY/WX   TEMP WIND        PRES    VSBY
                                AIR  DIR/SP/G
                 (UTC)          (F)  (DEG/KT/KT) (MB)    (MI)
HARRISON CRIB    2000            52  140/ 19/ 22   N/A
BURNHAM HARBOR   2000            55  140/ 13/ 13   N/A
CALUMET HARBOR   2000            60  130/ 13/ 20 1011.6S
BURNS HARBOR     NOT AVBL
MICHIGAN CITY    2000            59  110/ 17/ 26   N/A
$$

ABBREVIATIONS USED IN REMARKS
   TC - TEMPERATURE IN CELSIUS
  WCI - WIND CHILL INDEX
   HX - HEAT INDEX
  VSB - VISIBILITY
$$



USA.gov is the U.S. government's official web portal to all federal, state and local government web resources and services.